When you browse on this site, cookies collect data to enhance your experience and personalize the content and advertising you see.
Visit our Privacy Policy to learn more. By continuing to use the site, you agree to this use of cookies and data.
  • In Deutschland
  • Länderverzeichnis
  • Für 7 Tage
  • Wassertemperatur
  • Satellitenkarten
  • Wetterkarte
  • Widgets
  • user-avatar
    Anmelden

    Stündliche Wetter Kuiaba

    Heute, 12 Dezember, Mittwoch

    Zeit Temperatur Niederschläge Wind Luftdruck Luftfeuchtigkeit
    00:00 +27°C° 0 mm 2 m/S 741 mmHg 73%
    01:00 +26°C° 0 mm 2 m/S 741 mmHg 74%
    02:00 +26°C° 0 mm 2 m/S 741 mmHg 76%
    03:00 +26°C° 0 mm 2 m/S 741 mmHg 77%
    04:00 +25°C° 0 mm 2 m/S 741 mmHg 78%
    05:00 +25°C° 0 mm 2 m/S 741 mmHg 79%
    06:00 +27°C° 0 mm 2 m/S 742 mmHg 73%
    07:00 +29°C° 0 mm 3 m/S 742 mmHg 68%
    08:00 +31°C° 0 mm 3 m/S 743 mmHg 62%
    09:00 +33°C° 0.2 mm 3 m/S 743 mmHg 56%
    10:00 +35°C° 0.2 mm 3 m/S 743 mmHg 50%
    11:00 +37°C° 0.2 mm 2 m/S 743 mmHg 45%
    12:00 +37°C° 0.1 mm 2 m/S 742 mmHg 44%
    13:00 +36°C° 0.1 mm 1 m/S 741 mmHg 44%
    14:00 +36°C° 0.1 mm 1 m/S 740 mmHg 44%
    15:00 +35°C° 0 mm 1 m/S 740 mmHg 47%
    16:00 +35°C° 0 mm 1 m/S 739 mmHg 50%
    17:00 +34°C° 0 mm 1 m/S 739 mmHg 53%
    18:00 +33°C° 0 mm 1 m/S 739 mmHg 56%
    19:00 +31°C° 0 mm 1 m/S 739 mmHg 59%
    20:00 +29°C° 0 mm 1 m/S 740 mmHg 63%
    21:00 +29°C° 0.2 mm 1 m/S 740 mmHg 65%
    22:00 +28°C° 0.2 mm 2 m/S 740 mmHg 68%
    23:00 +28°C° 0.2 mm 2 m/S 740 mmHg 71%

    Morgen, 13 Dezember, Donnerstag

    Zeit Temperatur Niederschläge Wind Luftdruck Luftfeuchtigkeit
    00:00 +27°C° 0 mm 2 m/S 740 mmHg 72%
    01:00 +27°C° 0 mm 2 m/S 739 mmHg 74%
    02:00 +27°C° 0 mm 2 m/S 739 mmHg 75%
    03:00 +26°C° 0.2 mm 2 m/S 739 mmHg 77%
    04:00 +26°C° 0.2 mm 2 m/S 740 mmHg 78%
    05:00 +26°C° 0.2 mm 2 m/S 740 mmHg 80%
    06:00 +27°C° 0 mm 2 m/S 740 mmHg 74%
    07:00 +29°C° 0 mm 2 m/S 741 mmHg 68%
    08:00 +31°C° 0 mm 2 m/S 742 mmHg 62%
    09:00 +34°C° 0.2 mm 2 m/S 741 mmHg 57%
    10:00 +35°C° 0.2 mm 2 m/S 741 mmHg 51%
    11:00 +37°C° 0.2 mm 2 m/S 741 mmHg 45%
    12:00 +37°C° 0.2 mm 2 m/S 740 mmHg 44%
    13:00 +38°C° 0.2 mm 2 m/S 739 mmHg 42%
    14:00 +38°C° 0.2 mm 2 m/S 738 mmHg 40%
    15:00 +37°C° 0 mm 2 m/S 738 mmHg 43%
    16:00 +36°C° 0 mm 2 m/S 737 mmHg 46%
    17:00 +36°C° 0 mm 2 m/S 737 mmHg 49%
    18:00 +34°C° 0 mm 2 m/S 737 mmHg 53%
    19:00 +31°C° 0 mm 2 m/S 738 mmHg 57%
    20:00 +30°C° 0 mm 2 m/S 738 mmHg 62%
    21:00 +29°C° 0 mm 2 m/S 738 mmHg 64%
    22:00 +28°C° 0 mm 2 m/S 738 mmHg 67%
    23:00 +28°C° 0 mm 2 m/S 739 mmHg 70%

    übermorgen, 14 Dezember, Freitag

    Zeit Temperatur Niederschläge Wind Luftdruck Luftfeuchtigkeit
    00:00 +27°C° 0.3 mm 2 m/S 738 mmHg 75%
    01:00 +26°C° 0.3 mm 2 m/S 738 mmHg 79%
    02:00 +25°C° 0.3 mm 2 m/S 738 mmHg 83%
    03:00 +25°C° 0.1 mm 2 m/S 738 mmHg 85%
    04:00 +25°C° 0.1 mm 2 m/S 739 mmHg 87%
    05:00 +25°C° 0.1 mm 2 m/S 739 mmHg 88%
    06:00 +26°C° 0 mm 2 m/S 740 mmHg 81%
    07:00 +28°C° 0 mm 3 m/S 740 mmHg 73%
    08:00 +30°C° 0 mm 3 m/S 741 mmHg 66%
    09:00 +33°C° 0.1 mm 3 m/S 741 mmHg 58%
    10:00 +35°C° 0.1 mm 3 m/S 740 mmHg 51%
    11:00 +37°C° 0.1 mm 3 m/S 740 mmHg 43%
    12:00 +37°C° 0 mm 3 m/S 739 mmHg 42%
    13:00 +38°C° 0 mm 3 m/S 739 mmHg 41%
    14:00 +38°C° 0 mm 3 m/S 738 mmHg 39%
    15:00 +37°C° 0 mm 2 m/S 738 mmHg 43%
    16:00 +36°C° 0 mm 2 m/S 738 mmHg 47%
    17:00 +35°C° 0 mm 2 m/S 738 mmHg 50%
    18:00 +34°C° 0 mm 2 m/S 738 mmHg 54%
    19:00 +32°C° 0 mm 2 m/S 739 mmHg 58%
    20:00 +30°C° 0 mm 3 m/S 740 mmHg 61%
    21:00 +29°C° 0.1 mm 2 m/S 740 mmHg 66%
    22:00 +28°C° 0.1 mm 2 m/S 740 mmHg 71%
    23:00 +27°C° 0.1 mm 2 m/S 741 mmHg 76%

    15 Dezember, Samstag

    Zeit Temperatur Niederschläge Wind Luftdruck Luftfeuchtigkeit
    00:00 +27°C° 0 mm 2 m/S 740 mmHg 78%
    01:00 +26°C° 0 mm 2 m/S 740 mmHg 80%
    02:00 +26°C° 0 mm 2 m/S 740 mmHg 82%
    03:00 +26°C° 0 mm 2 m/S 740 mmHg 82%
    04:00 +25°C° 0 mm 1 m/S 740 mmHg 83%
    05:00 +25°C° 0 mm 1 m/S 741 mmHg 84%
    06:00 +27°C° 0 mm 2 m/S 741 mmHg 76%
    07:00 +29°C° 0 mm 2 m/S 742 mmHg 68%
    08:00 +31°C° 0 mm 2 m/S 743 mmHg 61%
    09:00 +34°C° 0.3 mm 2 m/S 742 mmHg 55%
    10:00 +36°C° 0.3 mm 2 m/S 742 mmHg 49%
    11:00 +37°C° 0.3 mm 2 m/S 742 mmHg 43%
    12:00 +37°C° 0 mm 2 m/S 741 mmHg 43%
    13:00 +36°C° 0 mm 1 m/S 740 mmHg 43%
    14:00 +36°C° 0 mm 1 m/S 740 mmHg 43%
    15:00 +36°C° 0 mm 1 m/S 739 mmHg 45%
    16:00 +35°C° 0 mm 1 m/S 739 mmHg 47%
    17:00 +35°C° 0 mm 1 m/S 739 mmHg 49%
    18:00 +33°C° 0 mm 1 m/S 739 mmHg 52%
    19:00 +32°C° 0 mm 1 m/S 740 mmHg 55%
    20:00 +31°C° 0 mm 1 m/S 740 mmHg 59%
    21:00 +29°C° 0.8 mm 1 m/S 741 mmHg 67%
    22:00 +28°C° 0.8 mm 2 m/S 741 mmHg 75%
    23:00 +26°C° 0.8 mm 2 m/S 741 mmHg 84%

    16 Dezember, Sonntag

    Zeit Temperatur Niederschläge Wind Luftdruck Luftfeuchtigkeit
    00:00 +26°C° 0.1 mm 2 m/S 741 mmHg 84%
    01:00 +26°C° 0.1 mm 1 m/S 740 mmHg 85%
    02:00 +26°C° 0.1 mm 1 m/S 740 mmHg 86%
    03:00 +26°C° 0 mm 1 m/S 740 mmHg 86%
    04:00 +25°C° 0 mm 1 m/S 741 mmHg 87%
    05:00 +25°C° 0 mm 1 m/S 741 mmHg 87%
    06:00 +27°C° 0 mm 1 m/S 742 mmHg 80%
    07:00 +29°C° 0 mm 1 m/S 742 mmHg 72%
    08:00 +31°C° 0 mm 1 m/S 743 mmHg 65%
    09:00 +33°C° 0.1 mm 1 m/S 743 mmHg 57%
    10:00 +36°C° 0.1 mm 2 m/S 742 mmHg 49%
    11:00 +38°C° 0.1 mm 2 m/S 742 mmHg 41%
    12:00 +37°C° 0.1 mm 1 m/S 741 mmHg 42%
    13:00 +36°C° 0.1 mm 1 m/S 741 mmHg 43%
    14:00 +36°C° 0.1 mm 1 m/S 740 mmHg 44%
    15:00 +35°C° 0 mm 1 m/S 740 mmHg 47%
    16:00 +35°C° 0 mm 1 m/S 740 mmHg 49%
    17:00 +34°C° 0 mm 1 m/S 739 mmHg 52%
    18:00 +33°C° 0.1 mm 1 m/S 740 mmHg 56%
    19:00 +31°C° 0.1 mm 2 m/S 740 mmHg 60%
    20:00 +30°C° 0.1 mm 2 m/S 740 mmHg 65%
    21:00 +29°C° 0.3 mm 2 m/S 740 mmHg 69%
    22:00 +28°C° 0.3 mm 1 m/S 741 mmHg 73%
    23:00 +27°C° 0.3 mm 1 m/S 741 mmHg 77%

    17 Dezember, Montag

    Zeit Temperatur Niederschläge Wind Luftdruck Luftfeuchtigkeit
    00:00 +27°C° 0 mm 1 m/S 741 mmHg 78%
    01:00 +26°C° 0 mm 1 m/S 740 mmHg 79%
    02:00 +26°C° 0 mm 1 m/S 740 mmHg 80%
    03:00 +26°C° 0 mm 1 m/S 740 mmHg 81%
    04:00 +25°C° 0 mm 1 m/S 740 mmHg 82%
    05:00 +25°C° 0 mm 1 m/S 740 mmHg 83%
    06:00 +27°C° 0 mm 1 m/S 741 mmHg 75%
    07:00 +30°C° 0 mm 1 m/S 742 mmHg 67%
    08:00 +32°C° 0 mm 1 m/S 742 mmHg 60%
    09:00 +35°C° 0 mm 2 m/S 742 mmHg 53%
    10:00 +36°C° 0 mm 2 m/S 742 mmHg 47%
    11:00 +38°C° 0 mm 3 m/S 742 mmHg 40%
    12:00 +38°C° 0 mm 2 m/S 741 mmHg 41%
    13:00 +38°C° 0 mm 2 m/S 740 mmHg 42%
    14:00 +36°C° 0 mm 1 m/S 739 mmHg 42%
    15:00 +36°C° 0 mm 1 m/S 739 mmHg 44%
    16:00 +36°C° 0 mm 1 m/S 739 mmHg 46%
    17:00 +33°C° 0 mm 0 m/S 739 mmHg 49%
    18:00 +32°C° 0 mm 0 m/S 739 mmHg 50%
    19:00 +31°C° 0 mm 0 m/S 740 mmHg 52%
    20:00 +29°C° 0 mm 0 m/S 740 mmHg 54%
    21:00 +31°C° 0 mm 1 m/S 740 mmHg 55%
    22:00 +30°C° 0 mm 1 m/S 740 mmHg 57%
    23:00 +30°C° 0 mm 1 m/S 740 mmHg 59%
    Mehr zeigen